Location: Friedrichshafen
(47.6598°N, 9.4819°E)
Time: 14:33:06
(UTC+01:00)

ISS - Pass Details

Date: 10 January 2018
Orbit: 402 x 406 km, 51.6° (Epoch: 16 January)

Event Time Altitude Azimuth Distance (km) Brightness Sun altitude
Exits shadow 06:32:38 36° 304° (WNW) 656 -3.3 -15.5°
Maximum altitude 06:33:47 75° 20° (NNE) 425 -3.8 -15.4°
Drops below altitude 10° 06:37:04 10° 108° (ESE) 1,463 0.4 -14.8°
Sets 06:39:09 0° 110° (ESE) 2,322 2.0 -14.5°
